Wink, TX

2:48 AM CDT on May 23, 2017 (GMT -0500)
Winkler County

Weather History for KINK - June, 2013

Change the Weather History Date:

Saturday, June 15, 2013

  Actual Average Record
Temperature  
Mean Temperature 82 °F -  
Max Temperature 96 °F 93 °F 114 °F (2008)
Min Temperature 68 °F 66 °F 57 °F (2001)
Cooling Degree Days 17    
Growing Degree Days 32 (Base 50)    
Moisture  
Dew Point 62 °F    
Average Humidity 63    
Maximum Humidity 88    
Minimum Humidity 25    
Precipitation  
Precipitation 0.00 in - - ()
Sea Level Pressure  
Sea Level Pressure 29.88 in    
Wind  
Wind Speed 7 mph (ESE)    
Max Wind Speed 18 mph    
Max Gust Speed 25 mph    
Visibility 10 miles    
Events      
Averages and records for this station are not official NWS values.
T = Trace of Precipitation, MM = Missing Value Source: NWS Daily Summary

Daily Weather History Graph

Daily Weather History Graph

Search for Another Location

Airport or City:

Trip Planner

Search our weather history database for the weather conditions in past years. The results will help you decide how hot, cold, wet, or windy it might be!

Date:

Astronomy

Jun. 15, 2013 Rise Set
Actual Time 6:46 AM CDT 8:59 PM CDT
Civil Twilight 6:18 AM CDT 9:28 PM CDT
Nautical Twilight 5:44 AM CDT 10:02 PM CDT
Astronomical Twilight 5:07 AM CDT 10:39 PM CDT
Moon 1:02 PM CDT (6/15) 12:56 AM CDT (6/15)
Length of Visible Light 15h 09m
Length of Day
14h 13m
Waxing Crescent, 40% of the Moon is Illuminated
Jun 15
Waxing Crescent
Jun 16
First Quarter
Jun 23
Full
Jun 29
Last Quarter
Jul 8
New

Hourly Weather History & Observations

Time (CDT) Temp. Heat Index Dew Point Humidity Pressure Visibility Wind Dir Wind Speed Gust Speed Precip Events Conditions
12:53 AM 71.1 °F - 64.0 °F 78% 29.88 in 10.0 mi SE 6.9 mph - N/A   Clear
1:27 AM 71.6 °F - 64.4 °F 78% 30.02 in 10.0 mi East 8.1 mph - N/A   Mostly Cloudy
1:46 AM 71.6 °F - 64.4 °F 78% 30.01 in 10.0 mi ESE 8.1 mph - N/A   Mostly Cloudy
1:53 AM 71.1 °F - 64.0 °F 78% 29.88 in 10.0 mi ESE 9.2 mph - N/A   Scattered Clouds
2:53 AM 70.0 °F - 64.9 °F 84% 29.83 in 10.0 mi SE 12.7 mph - N/A   Clear
3:53 AM 69.1 °F - 64.9 °F 87% 29.85 in 10.0 mi ENE 3.5 mph - N/A   Clear
4:53 AM 68.0 °F - 64.0 °F 87% 29.84 in 10.0 mi ENE 3.5 mph - N/A   Clear
5:18 AM 68.0 °F - 64.4 °F 88% 29.97 in 10.0 mi ENE 6.9 mph - N/A   Mostly Cloudy
5:53 AM 69.1 °F - 64.9 °F 87% 29.87 in 10.0 mi ENE 4.6 mph - N/A   Overcast
6:23 AM 69.8 °F - 64.4 °F 83% 29.99 in 10.0 mi ESE 4.6 mph - N/A   Overcast
6:53 AM 69.1 °F - 64.9 °F 87% 29.87 in 10.0 mi ESE 5.8 mph - N/A   Mostly Cloudy
7:15 AM 69.8 °F - 64.4 °F 83% 30.00 in 10.0 mi East 5.8 mph - N/A   Partly Cloudy
7:53 AM 71.1 °F - 66.0 °F 84% 29.88 in 10.0 mi SE 9.2 mph - N/A   Clear
8:53 AM 73.9 °F - 66.0 °F 76% 29.89 in 10.0 mi SE 9.2 mph - N/A   Scattered Clouds
9:13 AM 73.4 °F - 66.2 °F 78% 30.03 in 10.0 mi SE 6.9 mph - N/A   Mostly Cloudy
9:53 AM 75.0 °F - 64.9 °F 71% 29.91 in 10.0 mi ESE 5.8 mph - N/A   Overcast
10:26 AM 77.0 °F - 64.4 °F 65% 30.04 in 10.0 mi SE 8.1 mph - N/A   Overcast
10:53 AM 78.1 °F - 64.0 °F 62% 29.91 in 10.0 mi SSE 4.6 mph - N/A   Partly Cloudy
11:53 AM 81.0 °F 82.2 °F 63.0 °F 54% 29.90 in 10.0 mi Variable 4.6 mph - N/A   Scattered Clouds
12:53 PM 84.0 °F 84.5 °F 62.1 °F 47% 29.88 in 10.0 mi Variable 4.6 mph - N/A   Clear
1:53 PM 87.1 °F 86.7 °F 60.1 °F 40% 29.86 in 10.0 mi East 4.6 mph - N/A   Clear
2:53 PM 89.1 °F 88.0 °F 57.9 °F 35% 29.82 in 10.0 mi Calm Calm - N/A   Clear
3:53 PM 91.9 °F 90.6 °F 57.0 °F 31% 29.79 in 10.0 mi Variable 3.5 mph - N/A   Clear
4:53 PM 95.0 °F 93.0 °F 55.0 °F 26% 29.77 in 10.0 mi South 5.8 mph - N/A   Clear
5:53 PM 96.1 °F 94.1 °F 55.0 °F 25% 29.75 in 10.0 mi ENE 5.8 mph - N/A   Clear
6:53 PM 95.0 °F 92.7 °F 54.0 °F 25% 29.75 in 10.0 mi East 6.9 mph - N/A   Clear
7:53 PM 91.9 °F 90.0 °F 55.0 °F 29% 29.75 in 10.0 mi East 8.1 mph - N/A   Clear
8:53 PM 89.1 °F 88.2 °F 59.0 °F 36% 29.76 in 10.0 mi SE 11.5 mph - N/A   Clear
9:53 PM 84.0 °F 85.4 °F 64.0 °F 51% 29.79 in 10.0 mi SSE 18.4 mph 25.3 mph N/A   Clear
10:53 PM 81.0 °F 82.5 °F 64.0 °F 56% 29.83 in 10.0 mi SE 13.8 mph 24.2 mph N/A   Clear
11:53 PM 80.1 °F 81.7 °F 64.0 °F 58% 29.84 in 10.0 mi SSE 11.5 mph - N/A   Clear